CZ-4 DEB, 26199

Orbit data source: Space-Track

CZ-4 DEB, 26199 is space debris in SSO originally from a launch on Thu, 14 Oct 1999 UTC launched from the Taiyaun Space Center, China (TSC). Debris objects in space refer to the collection of defunct objects orbiting the Earth. Examples of debris include non-operational satellites, rocket bodies, and fragments generated from explosions, collisions, or faulty payload assembly.

Loading next visibility...
Identifier
26199, 1999-057CM
Orbit
SSO
Country
Flag of CNCN / PRC
Related business
Manufacturer
Unknown
Mission
Spacecraft
Bus & Motor
Unknown
Mass
Unknown
Launch date (UTC)
1999-10-14 (26 years ago)
Launch vehicle
Unknown
Launch site
Taiyaun Space Center, China (TSC)
Object type
Payload
Rocket body
Debris
Shape & HBR
Unknown shape, 0.1 m
Radar Cross Section
Small (<0.1 m²)

Expand to show TLE details & history
Last TLE update: 18 hours ago

TLE from 18 hours ago
0 CZ-4 DEB
1 26199U 99057CM  25346.74246897  .00008429  00000-0  14236-2 0  9995
2 26199  98.3648  51.8134 0064507 115.5185   2.5142 14.68287112358692
Epoch: 2025-12-12T17:49Z
TLE epoch observation values (Epoch: 2025-12-12T17:49:09.319Z)
Latitude
60.9102°
Longitude
-101.91572°
Altitude
631.52 km
Speed
7.573 km/s
True Right ascension
16h 28m 12s
True Declination
60° 45' 40"
Sunlit
Object was in daylight at epoch
Visualization orbit readout
Latitude
Unknown
Longitude
Unknown
Altitude
Unknown
Speed
Unknown
Apparent Right ascension
Unknown
Apparent Declination
Unknown
Sunlit
N/A
Visualization observer readout
Local Sidereal Time
10:04:58
Azimuth
Unknown
Elevation
Unknown
Doppler factor
Unknown
Orbital elements
Apogee altitude
709.043 km
Perigee altitude
618.195 km
Semi-major axis
7,041.756 km
Eccentricity
0.00645
Inclination
98.3648°
RAAN
51.8134°
Arg. of periapsis
115.5185°
True anomaly
2.54689°
Mean anomaly
2.5142°
Eccentric anomaly
2.53052°
Mean motion
3.67301 °/min
Orbital period
98.01 mins
BSTAR
0.0014236
Loading maneuver chart data...
Computing Atmospheric mass density...

Documentation

Showing up to 5 results
|